RH
46 42 54 78 82 71 69 69 70 68 67 65 65 63 60 56 40 28 26 22 23 21 21 23 24 22 24 30 30 27 27 32 37 43 41 33 31 29 30 31 31 31 31 32 32 33 33 34 35 35 36 40 44 47 48 48 49 49 50 48 47 45 46 46 44 38 31 26 26 27 21 16 13 13 13 12 23 36 38 35 34 35 41 54 63 66 61 56 54 53 56 58 63 66 61 55 53
49 40 47 71 80 74 72 72 70 69 69 67 64 62 59 57 41 24 23 23 20 19 21 22 22 20 20 24 25 21 20 25 29 33 32 30 30 28 28 30 31 32 33 33 33 34 34 35 34 34 36 39 42 45 47 49 51 52 53 53 53 52 51 52 52 51 47 43 47 54 49 32 19 16 14 13 23 32 35 33 31 36 42 52 61 65 63 58 59 59 58 62 64 64 61 58 56
50 40 44 64 77 75 73 74 70 67 69 66 63 63 58 55 45 25 17 19 18 18 20 21 20 21 23 22 22 22 19 20 20 22 26 27 28 28 29 29 31 32 33 34 33 33 32 32 31 32 34 35 36 38 40 43 46 47 49 50 53 55 55 55 55 57 58 56 59 67 68 55 38 28 20 19 31 32 33 38 32 34 42 55 64 66 67 62 61 65 64 65 65 63 62 60 58
50 39 48 63 73 80 77 76 71 67 68 66 64 64 57 48 45 34 18 15 17 17 20 21 20 23 25 22 22 23 18 18 19 20 25 27 25 26 28 28 29 30 31 31 29 29 27 28 28 29 31 32 33 35 40 43 45 46 48 51 53 55 57 58 57 56 59 64 69 73 73 68 56 45 35 28 39 38 33 40 39 43 47 53 64 65 68 66 62 66 71 70 65 63 63 61 58
49 38 55 68 68 82 85 81 76 70 67 65 64 64 56 39 35 41 29 14 15 17 19 21 20 21 20 19 21 22 18 17 18 18 20 24 23 22 24 24 25 25 26 26 26 25 25 25 27 29 30 32 34 40 44 46 49 51 54 56 57 58 59 60 58 56 57 65 74 77 73 70 65 59 54 39 42 43 34 40 45 59 60 53 62 64 63 65 65 67 73 73 66 64 63 61 56
46 38 58 70 67 78 85 82 79 75 71 65 64 64 59 42 27 34 35 18 14 17 18 20 21 20 18 19 20 19 18 17 18 18 17 20 20 19 19 19 20 21 22 23 23 23 24 26 28 30 31 33 37 43 46 50 53 55 58 60 61 61 61 61 59 58 60 68 72 75 73 75 74 68 67 51 44 42 37 44 46 59 64 55 62 63 59 61 66 71 75 73 69 66 62 61 52
42 42 60 71 72 75 79 84 83 78 75 68 65 66 65 56 34 25 34 26 15 17 17 19 23 21 18 19 19 18 18 17 17 17 16 16 17 18 17 17 16 17 19 20 21 22 23 27 30 31 32 34 39 44 48 52 55 56 57 57 57 55 56 57 58 61 62 68 71 77 80 81 74 70 76 61 51 48 50 59 55 59 61 57 61 60 61 61 66 73 74 72 70 65 62 62 48
40 48 63 69 74 74 79 90 91 84 77 71 70 71 66 60 42 21 24 24 15 16 17 20 26 24 17 18 19 19 19 17 16 15 14 14 15 16 16 16 14 14 16 17 19 22 25 29 31 32 33 36 39 43 47 49 51 52 50 49 49 48 51 52 56 61 64 69 73 77 81 79 72 79 87 69 63 64 68 75 66 67 68 61 58 57 62 64 68 73 74 72 69 63 62 59 38
39 54 67 69 76 79 84 90 93 89 81 74 74 77 63 51 39 20 16 16 14 17 17 21 26 23 17 18 19 18 19 17 15 14 13 12 12 13 13 14 14 14 15 17 21 25 29 31 33 34 36 36 37 42 44 43 45 45 45 46 47 50 50 51 56 59 64 71 75 77 78 81 82 91 93 78 76 74 75 80 69 71 76 67 59 57 60 65 69 73 76 72 64 61 62 50 26
41 63 72 70 78 82 84 86 91 92 87 78 76 81 62 42 32 18 16 13 16 22 18 20 23 21 18 18 18 18 19 17 14 13 11 11 11 11 11 13 14 14 16 20 25 28 30 32 33 34 37 36 35 41 42 43 48 51 53 53 53 52 52 55 58 58 64 73 73 72 77 87 88 90 89 84 83 79 80 81 70 72 77 71 63 59 62 68 72 75 77 69 61 61 55 35 19
42 68 75 71 77 82 82 83 90 93 93 83 76 81 61 41 29 17 18 14 17 25 18 19 22 20 20 18 19 19 18 17 14 12 11 10 10 10 11 14 16 16 18 23 27 30 30 32 34 35 39 39 37 42 45 49 55 58 59 61 60 56 57 62 64 64 68 75 72 67 74 82 82 81 80 82 83 80 82 80 73 72 76 74 67 66 67 73 76 76 74 67 62 56 40 23 18
43 69 74 71 75 78 77 79 86 93 98 86 77 80 62 42 27 16 18 16 17 22 17 18 22 21 20 19 19 19 19 18 14 13 12 11 9 9 12 14 18 20 21 25 29 32 32 34 36 38 43 40 39 45 50 54 56 57 58 59 60 56 55 60 74 77 71 77 76 72 79 80 81 83 80 83 85 82 80 80 80 75 78 82 75 73 73 77 80 76 72 66 57 41 25 18 19
45 69 74 74 76 74 75 79 81 90 100 86 78 76 60 43 26 16 18 17 16 17 16 17 21 23 21 20 20 20 19 18 15 14 12 11 9 9 12 15 18 21 22 26 31 34 33 36 37 40 46 43 46 51 51 57 57 54 52 51 52 51 50 57 76 82 71 75 76 77 88 84 84 89 86 84 83 84 82 84 87 77 79 87 81 75 77 81 80 77 71 57 40 25 19 19 18
48 70 74 76 77 72 75 86 84 91 100 85 77 68 56 44 25 20 20 17 16 13 14 16 21 25 22 19 21 20 19 18 16 16 13 10 9 9 11 14 17 20 23 27 29 32 33 37 39 41 49 49 52 51 49 58 58 50 44 44 46 45 48 56 72 76 65 62 64 75 90 85 82 85 85 83 79 83 87 90 91 81 79 84 82 77 79 82 81 77 59 36 24 20 19 19 16
51 71 74 75 77 69 66 82 88 94 98 84 76 63 53 41 22 23 23 18 17 13 13 14 19 27 24 19 21 21 19 18 18 18 14 9 8 8 10 12 15 18 23 27 30 33 35 39 42 42 44 47 48 46 50 57 53 45 39 40 41 39 43 54 70 71 57 53 58 72 85 82 77 75 76 80 80 80 87 95 94 89 87 86 83 79 80 84 82 65 37 22 21 20 19 18 13
51 70 73 74 75 64 59 78 90 96 97 82 74 63 52 35 18 24 27 21 18 13 13 13 17 23 24 19 19 21 19 18 19 19 14 9 8 8 10 11 13 18 22 28 33 36 37 39 43 42 40 46 46 42 50 52 45 40 36 39 39 34 37 46 63 64 52 48 54 69 82 77 71 70 73 80 81 77 85 96 95 93 94 90 86 83 81 82 73 47 26 24 23 19 19 16 9
50 66 71 72 71 63 65 82 90 97 96 81 73 63 50 34 22 23 22 20 17 15 13 13 15 18 22 22 18 19 19 18 19 21 15 10 9 9 11 12 15 18 23 30 35 37 38 39 39 39 39 45 44 40 46 45 41 39 35 37 35 30 33 38 52 59 53 44 43 57 72 71 66 67 72 79 78 74 77 85 89 93 95 92 89 85 78 74 60 38 29 28 24 22 19 12 6
47 62 69 70 68 59 61 76 86 97 94 80 75 62 50 41 34 27 20 19 17 16 14 12 15 16 20 20 16 17 19 18 20 22 18 12 10 12 14 15 17 20 24 32 36 36 37 37 36 36 37 39 39 39 43 39 34 36 37 36 30 26 30 34 42 51 50 40 37 49 66 69 58 55 64 73 74 72 72 76 84 88 87 87 83 77 69 63 50 33 27 24 24 25 17 8 5
45 57 66 66 63 55 57 72 85 98 92 79 75 62 54 47 37 29 21 18 15 14 13 12 14 15 20 20 17 16 18 18 20 24 20 13 12 15 18 20 20 21 26 33 35 36 38 37 34 34 34 35 37 39 42 37 30 31 35 35 30 27 28 30 32 35 37 32 34 48 67 71 52 42 50 59 63 67 71 76 82 81 76 74 70 62 57 54 42 30 25 22 25 24 15 9 4
43 50 63 60 58 60 64 77 90 99 92 80 73 63 60 51 35 25 18 15 11 12 11 12 14 17 22 22 18 16 19 20 21 26 21 15 16 18 20 22 22 23 28 33 34 36 39 38 35 33 32 33 36 39 41 35 27 26 30 33 35 33 27 27 27 27 29 29 35 45 57 62 51 40 40 47 55 61 66 70 75 75 72 67 60 54 50 44 34 28 25 26 29 23 14 9 4
44 51 62 51 53 69 71 81 97 99 90 82 74 67 65 57 40 24 19 17 10 10 11 12 14 19 26 25 19 17 20 21 22 26 22 19 20 20 21 22 23 25 28 31 33 35 36 34 34 33 31 31 33 38 41 32 23 23 26 29 35 34 27 25 26 26 28 30 35 41 45 47 45 40 40 44 49 52 57 60 65 69 70 66 60 55 46 34 26 24 26 28 26 18 11 6 4
45 51 50 39 48 71 79 86 98 96 89 86 75 70 68 59 49 30 19 19 11 8 11 12 13 19 28 27 20 18 21 21 22 26 25 24 24 22 23 23 24 26 28 30 32 32 30 28 29 29 29 29 30 35 40 34 23 20 23 25 27 27 25 24 25 27 28 29 31 33 36 37 38 39 38 36 34 37 42 46 52 60 65 61 56 51 40 30 25 23 24 24 17 9 7 4 5
50 53 40 34 42 61 80 90 97 99 93 90 77 69 67 59 55 39 21 16 10 8 10 10 12 19 26 24 17 17 20 19 20 25 28 28 27 25 24 24 25 27 29 31 33 32 25 24 23 22 24 27 27 32 39 37 26 19 20 23 23 22 23 24 25 27 28 30 32 32 32 33 35 37 35 29 25 25 29 33 38 46 53 51 48 45 37 31 27 23 21 17 9 5 4 4 8
50 53 37 32 37 52 81 90 95 100 90 85 78 68 65 61 59 48 27 13 8 8 9 10 13 19 24 19 14 15 18 19 20 25 28 30 29 27 25 24 25 27 29 32 37 33 23 20 18 15 18 23 24 28 36 38 29 21 20 21 22 21 22 23 24 27 29 31 34 33 30 29 29 30 28 26 23 21 23 25 26 30 33 34 34 33 31 30 26 21 16 9 4 4 5 7 9
42 43 36 32 33 45 78 94 93 96 89 83 79 70 67 66 65 57 36 14 7 8 9 12 15 19 22 17 13 14 17 20 22 25 27 30 31 29 27 24 24 27 28 33 39 31 20 18 15 12 14 17 20 25 33 36 31 23 21 22 21 21 21 23 24 26 28 30 34 33 30 29 26 25 24 22 21 21 21 21 22 23 24 23 24 25 27 28 23 15 8 3 4 5 6 9 10
41 37 36 32 34 38 65 89 89 91 95 91 84 77 75 74 71 64 50 26 10 9 9 14 17 19 21 17 13 13 16 21 22 23 25 27 31 31 28 25 24 27 28 33 38 28 17 15 14 13 14 15 17 23 30 33 29 23 20 22 22 21 21 23 25 26 28 30 32 33 33 32 30 27 26 24 21 20 19 19 20 20 20 21 24 25 24 20 12 6 3 4 5 7 9 11 12
38 38 36 32 38 39 49 67 73 84 95 94 89 84 81 81 77 69 64 45 18 9 10 13 18 19 20 17 14 13 15 19 21 21 22 23 28 31 29 26 25 27 28 31 37 28 16 14 16 16 16 18 19 21 27 29 26 22 21 23 23 22 21 22 25 26 28 30 31 33 34 35 35 34 31 27 23 18 17 17 17 18 20 22 22 19 13 8 4 3 5 6 8 10 12 13 14
36 39 37 32 35 38 48 57 65 85 97 94 92 90 86 84 81 73 72 60 27 11 11 11 16 18 18 17 14 14 14 16 20 20 19 19 23 28 28 26 25 28 27 29 36 29 16 14 17 17 17 21 24 22 24 26 23 21 22 25 25 23 20 21 24 26 28 29 31 33 34 35 36 36 34 29 24 20 18 18 19 20 21 19 14 8 5 4 4 5 8 10 12 13 14 14 15
35 41 44 36 31 38 57 62 66 86 95 95 95 95 92 86 85 78 75 70 37 13 13 10 12 15 16 17 14 13 13 14 18 20 19 18 21 25 25 24 24 27 26 26 34 29 16 15 16 16 16 21 26 24 22 23 21 20 22 23 23 21 19 19 22 26 28 30 32 33 34 35 35 35 34 30 27 24 22 22 22 20 17 13 9 7 7 8 10 10 11 12 13 14 14 15 15
35 43 50 39 31 42 56 57 64 80 87 96 100 98 96 88 89 82 74 77 52 22 18 13 9 12 13 15 15 13 13 14 16 21 20 19 20 22 21 19 21 24 23 23 30 28 17 15 16 14 15 18 24 25 22 21 20 20 21 20 19 16 15 16 20 23 27 30 32 33 34 34 33 33 31 29 27 24 23 21 17 13 11 10 10 11 12 12 15 15 13 13 13 14 15 15 15
40 41 47 42 37 43 50 52 64 79 84 95 101 99 98 91 93 87 74 79 68 37 25 21 10 9 11 12 15 13 12 14 15 19 20 20 20 20 18 16 18 20 20 21 25 25 18 16 16 14 14 16 22 24 22 20 20 19 19 18 16 12 11 13 16 20 24 27 28 30 31 31 30 28 26 23 20 17 14 12 10 10 11 12 12 12 14 15 16 16 15 15 14 14 15 15 15
47 42 49 52 41 42 54 54 66 84 87 92 96 96 96 93 94 92 78 76 76 52 32 31 20 8 9 10 13 13 13 14 15 18 20 20 19 19 17 14 15 17 17 18 20 22 19 18 17 14 13 15 19 23 22 20 18 17 17 16 13 9 9 10 13 16 19 21 22 24 24 24 22 19 17 14 12 9 7 6 8 10 11 11 12 13 16 18 18 17 16 15 14 14 14 15 14
53 47 50 52 39 47 67 64 69 88 90 87 89 89 89 92 94 95 89 79 81 68 40 36 32 14 8 9 11 13 14 15 15 18 20 20 18 17 17 14 13 14 15 16 18 19 18 18 18 14 13 16 18 21 22 20 16 15 15 14 12 8 6 8 10 12 14 14 15 16 16 16 15 13 12 10 8 6 6 8 11 12 11 11 12 14 17 19 19 19 17 15 14 14 14 14 14
58 51 49 47 38 46 66 67 65 76 84 82 80 81 80 87 94 95 98 90 86 81 53 40 39 23 10 8 10 12 14 15 15 16 18 19 19 17 16 15 13 12 13 15 16 18 17 18 18 14 13 16 19 21 21 21 16 14 14 12 10 7 5 6 7 8 9 10 10 10 11 11 12 12 11 10 7 6 7 9 11 12 11 11 11 13 16 17 18 18 18 16 14 14 14 14 14
62 57 50 46 41 38 49 61 59 57 65 71 71 77 77 82 93 93 97 97 91 87 69 51 43 28 14 8 10 12 13 15 14 15 16 17 18 17 16 15 15 12 11 14 15 16 17 17 17 15 13 16 21 21 21 22 19 15 13 12 10 7 5 5 5 7 7 7 7 7 8 9 11 12 11 9 7 6 6 7 8 9 9 9 9 10 13 15 17 17 18 17 15 13 14 13 13
61 62 55 48 43 37 42 57 61 52 50 56 64 75 77 77 88 92 94 96 94 89 79 67 52 33 18 10 11 12 10 14 15 14 14 15 16 17 16 15 15 14 11 12 14 15 16 16 16 16 14 14 19 22 20 21 22 17 13 11 10 7 5 4 4 5 5 5 6 6 6 6 8 9 7 7 5 5 5 6 6 6 6 6 6 7 10 13 16 16 16 16 14 13 14 14 14
54 59 57 51 44 40 47 56 62 56 49 54 61 70 72 71 77 82 87 91 93 91 84 79 65 40 22 14 12 13 11 11 14 16 14 14 15 15 16 15 14 14 12 10 12 14 15 15 17 17 16 13 15 20 21 20 20 19 15 11 10 8 5 4 3 4 4 4 4 4 5 5 6 6 5 5 4 4 5 5 5 5 5 5 5 7 9 12 14 15 15 14 13 14 15 15 15
45 51 53 52 44 44 53 56 59 56 50 54 60 68 73 70 68 66 71 86 95 93 87 87 79 52 29 19 13 12 12 10 12 16 15 15 15 14 15 15 14 13 12 11 10 12 14 15 17 18 19 15 13 17 20 20 18 19 18 13 10 9 7 5 3 3 3 4 3 4 4 4 5 5 5 5 4 5 4 5 5 5 5 4 5 7 8 10 12 13 14 13 13 15 17 18 17
38 43 45 47 44 49 52 47 50 56 57 57 55 63 71 68 66 62 62 74 87 94 94 94 89 66 39 27 21 14 13 13 13 14 16 16 15 14 14 14 14 13 13 12 11 11 13 15 17 19 20 19 15 14 18 20 18 17 19 18 14 11 10 7 5 4 4 4 4 3 4 4 5 6 7 7 7 7 8 8 8 7 7 6 5 6 7 9 11 12 13 12 13 17 20 19 18
34 38 41 44 48 53 48 38 43 53 57 55 49 54 65 66 65 64 59 58 65 80 89 93 95 82 53 34 28 22 17 17 16 15 15 16 16 15 14 14 14 13 13 13 11 10 12 14 16 18 20 22 20 16 16 19 20 19 18 19 19 17 14 12 10 8 7 6 5 6 6 7 9 10 11 11 11 11 12 13 12 11 9 7 6 5 6 8 10 12 12 12 14 18 20 19 18
30 34 36 42 51 54 48 43 45 47 46 47 52 55 61 68 70 67 61 56 54 57 67 83 97 93 68 41 32 31 24 19 17 16 17 18 18 17 15 14 14 13 12 12 11 10 11 12 15 17 20 24 24 19 17 19 20 22 21 19 19 18 17 16 15 13 11 10 9 9 11 12 13 14 14 14 13 13 13 13 14 13 10 8 6 5 5 7 10 12 12 13 15 18 19 18 17
27 31 32 32 39 42 45 47 43 39 39 42 57 65 60 62 66 64 62 60 57 52 54 72 93 99 84 54 37 37 33 22 16 17 18 19 19 18 16 15 14 13 12 12 12 10 10 11 13 16 18 24 27 24 21 21 22 22 23 23 22 20 18 17 18 18 17 16 14 13 13 14 14 14 13 13 13 13 12 11 11 10 9 8 6 6 6 7 11 13 13 13 15 17 18 17 16
24 27 29 28 29 30 37 42 36 36 41 39 47 59 63 62 56 52 56 58 58 55 53 66 87 100 96 72 45 39 40 30 19 18 19 19 20 20 17 15 14 13 12 12 12 12 10 10 12 14 16 21 29 31 27 26 26 26 26 26 26 25 22 19 18 18 19 19 17 16 14 13 13 12 11 11 11 12 11 8 8 8 8 7 6 6 6 8 11 13 15 14 15 16 17 17 16
29 25 24 27 27 26 29 30 28 31 39 41 38 41 58 70 62 53 55 58 58 57 56 68 88 100 99 84 57 43 43 40 28 21 20 20 20 21 18 15 14 14 13 12 12 12 11 9 10 13 15 17 25 35 37 34 32 33 33 31 31 31 30 26 21 19 18 18 18 17 15 15 15 11 9 8 8 8 8 6 6 6 7 7 6 5 6 7 10 14 16 16 16 16 16 16 15
30 23 22 25 24 24 26 26 27 28 31 38 37 34 50 68 67 61 59 59 61 61 61 68 83 96 100 91 68 46 43 46 40 29 26 23 17 17 17 14 14 14 13 13 13 12 11 10 9 11 14 15 18 28 37 40 40 39 39 38 36 36 37 36 32 27 24 21 21 21 20 21 19 13 9 7 6 5 5 6 6 7 7 6 6 6 6 7 10 14 16 16 17 16 14 15 15
20 17 20 24 22 22 23 23 25 26 25 31 34 33 43 59 65 64 61 62 63 62 64 66 72 87 99 95 74 51 41 46 48 41 33 24 15 12 13 12 12 12 13 14 14 13 12 11 9 9 12 14 15 19 27 36 41 42 43 43 40 37 38 40 41 39 35 30 27 25 23 23 21 16 12 9 6 5 5 6 7 7 8 7 6 6 6 7 9 12 14 14 15 15 14 15 15
13 16 19 20 21 21 20 20 22 24 26 27 28 28 32 42 56 63 63 67 66 59 61 64 65 77 93 97 83 61 46 45 50 50 40 26 16 11 11 10 9 10 12 14 15 15 14 12 10 8 10 13 14 16 19 25 33 40 43 45 44 40 37 38 41 43 43 38 33 30 27 25 23 20 16 12 8 6 5 5 6 7 9 8 7 6 6 7 8 10 12 13 14 15 15 15 15
10 14 18 18 19 19 18 18 18 22 30 29 24 26 28 29 42 58 64 68 66 58 58 60 63 71 83 96 96 80 61 49 48 52 46 32 22 18 15 13 11 9 11 12 13 14 14 13 11 9 9 11 13 15 16 19 25 32 39 42 42 39 37 36 37 41 43 41 37 34 32 31 28 24 20 16 11 8 6 5 6 6 8 9 7 6 6 6 8 8 11 13 14 14 14 15 15
10 12 16 15 16 19 19 22 24 29 41 39 24 24 31 28 34 50 60 62 61 58 57 58 61 64 71 85 98 97 84 63 49 50 49 40 34 30 24 21 18 13 11 11 11 13 14 14 13 11 9 9 12 13 15 17 20 24 28 32 35 34 33 34 35 37 40 42 40 37 36 35 32 27 22 19 14 11 7 5 5 6 6 8 7 6 5 6 7 7 9 12 13 14 13 14 14
10 10 11 12 15 17 15 18 29 40 48 41 28 29 36 31 30 47 62 62 56 56 59 60 59 58 63 73 85 96 98 81 59 52 52 47 44 41 35 31 28 21 16 13 10 10 13 14 13 12 10 9 11 13 13 14 17 19 22 24 26 27 28 30 35 37 36 36 36 34 34 34 31 28 24 21 17 14 10 6 5 5 6 7 7 6 5 5 6 6 8 9 11 12 12 12 13
11 10 9 11 13 19 28 30 32 44 46 35 32 37 36 32 34 48 65 66 58 59 63 64 59 54 56 62 69 85 99 92 73 62 61 57 52 48 43 41 37 29 21 17 13 11 11 14 14 12 12 10 9 11 13 13 14 16 19 21 22 24 24 25 30 35 35 33 30 30 31 30 28 27 24 21 19 16 12 8 5 5 5 6 7 6 5 5 6 6 6 7 8 10 11 11 12
12 11 9 11 11 18 39 45 38 43 44 36 39 39 29 31 43 52 60 64 64 66 68 66 62 55 54 59 68 83 99 97 84 75 73 69 61 53 49 47 43 34 25 20 18 16 12 12 13 13 12 11 10 10 11 12 13 13 15 18 20 22 22 22 24 29 34 33 32 32 32 29 26 25 24 20 19 17 14 10 7 6 5 6 6 6 5 5 6 5 6 6 7 8 10 10 10
18 13 8 9 11 16 34 41 33 36 42 40 43 43 32 30 42 51 57 61 62 67 72 69 64 60 60 66 76 89 99 98 92 90 87 82 74 64 55 51 48 40 31 25 20 16 11 9 11 12 12 11 11 11 11 11 12 13 13 14 17 19 21 21 21 24 27 29 31 34 33 30 26 25 25 21 19 18 15 12 8 7 6 6 6 6 6 6 6 6 6 6 7 7 8 9 9
20 13 11 10 10 16 32 40 34 33 39 41 40 41 39 34 36 48 62 67 65 70 77 73 67 65 66 72 80 90 98 97 97 99 96 91 87 80 67 57 53 46 37 28 19 13 10 9 8 9 10 11 10 11 11 11 11 11 12 12 13 16 19 20 21 22 23 24 27 30 32 30 27 24 23 23 22 19 16 13 10 7 6 6 6 6 7 7 7 7 6 6 7 7 7 8 8
16 14 15 13 9 9 16 22 26 30 36 41 38 36 39 36 40 58 76 81 78 78 79 75 71 67 66 73 80 85 92 92 93 97 99 98 97 95 84 68 58 52 43 33 24 17 12 11 10 8 8 9 10 10 11 11 11 10 11 11 12 13 16 18 20 21 22 23 26 27 28 29 29 25 22 21 23 21 17 13 11 9 7 6 7 6 7 7 7 7 6 6 7 7 6 7 7
14 16 14 12 10 12 11 10 21 34 42 46 38 34 37 32 41 67 84 89 88 85 82 77 77 74 70 72 74 76 81 84 87 89 90 95 98 99 97 83 66 58 51 41 32 25 19 15 13 11 9 9 9 10 10 10 12 11 10 10 11 12 13 15 19 21 22 22 24 25 25 27 29 27 22 19 20 21 18 14 11 10 9 8 7 7 8 8 8 8 7 6 7 7 7 7 7
14 15 14 14 13 14 12 10 16 26 42 53 40 37 44 32 36 67 86 92 93 89 86 83 82 81 78 76 72 73 76 79 83 83 81 91 98 98 101 96 77 63 59 50 39 34 30 26 23 20 18 15 11 10 9 8 10 11 11 10 10 11 12 13 16 19 22 22 23 24 22 24 27 25 20 18 18 18 17 14 12 10 10 9 8 10 11 11 11 10 8 7 8 8 7 7 7
15 14 16 16 12 13 16 17 16 13 32 53 42 39 52 37 31 60 83 90 92 89 88 87 85 83 81 79 76 74 74 73 76 79 81 88 93 92 97 101 87 68 62 58 49 43 40 37 36 36 34 30 23 18 13 10 9 9 10 10 10 10 10 11 13 16 19 22 24 24 22 23 26 24 20 18 18 18 16 15 12 10 9 9 10 13 14 13 14 14 11 8 9 10 8 7 6
Wind_Speed
10 10 10 10 9 9 10 11 12 12 11 11 10 10 10 10 9 10 11 12 10 8 9 10 11 13 14 14 15 15 14 15 14 14 14 13 13 11 10 11 12 12 13 13 13 12 12 11 10 10 10 10 9 8 7 6 6 6 6 6 7 7 7 7 7 7 7 7 7 6 8 8 8 8 9 11 13 13 12 12 12 11 11 10 8 7 7 7 8 8 8 8 8 8 8 8 9
9 9 8 8 8 8 10 10 11 12 11 11 10 10 10 9 9 9 11 11 10 8 9 11 13 14 15 15 14 14 14 14 14 14 14 14 12 11 9 10 11 12 12 12 12 11 11 10 9 9 9 8 8 7 6 5 4 4 4 5 5 6 6 6 6 7 7 7 7 6 7 9 9 9 10 11 12 13 12 12 11 10 10 10 9 8 8 7 8 8 9 9 8 9 9 8 8
7 7 6 6 7 8 9 10 10 12 11 10 10 10 9 9 9 9 10 11 10 10 10 11 14 15 15 15 14 14 14 13 13 14 15 13 12 10 9 9 10 11 11 11 11 10 10 9 8 8 8 8 7 6 5 4 3 3 3 3 4 5 5 5 6 6 7 6 7 7 8 9 9 10 10 10 12 12 12 12 11 9 9 9 9 8 8 8 8 8 9 9 9 9 9 9 9
6 6 6 5 6 6 7 8 9 11 11 11 10 10 10 9 9 8 9 11 10 10 11 12 14 15 15 15 14 14 13 12 12 13 15 13 11 10 9 9 10 10 10 10 10 10 9 8 7 7 7 7 7 6 5 4 3 3 3 3 3 4 4 5 6 7 6 5 6 8 7 7 8 10 10 10 11 12 12 11 11 10 9 9 9 9 9 8 8 9 9 9 9 10 9 9 10
4 4 5 5 6 6 7 9 9 10 10 10 11 10 10 9 9 8 8 10 9 9 11 13 15 16 15 14 14 13 12 12 12 11 14 13 10 10 9 9 9 10 10 10 10 9 8 7 7 7 7 7 7 6 5 4 3 3 3 3 4 4 4 5 6 7 6 5 7 8 7 7 8 10 10 11 12 13 12 11 11 11 10 10 10 9 9 8 8 9 9 9 9 10 11 11 11
2 2 4 5 6 7 6 9 10 10 10 9 10 10 10 9 9 9 9 10 9 9 11 13 16 17 16 14 14 14 12 11 11 11 12 12 10 9 9 9 9 10 10 10 10 9 8 8 8 7 7 7 7 6 5 5 4 4 5 5 5 4 4 5 5 6 6 7 8 9 8 8 10 11 11 11 12 13 13 12 12 11 11 12 11 10 10 10 10 10 10 10 10 11 12 12 12
1 2 4 5 7 7 6 8 9 9 10 9 10 10 10 9 8 8 10 11 10 9 10 13 16 18 17 15 14 14 12 11 11 11 10 11 10 9 9 9 9 10 10 10 10 10 9 9 8 7 7 7 7 7 7 6 6 6 7 7 6 5 4 4 5 5 6 7 8 8 8 9 11 11 10 11 12 13 13 12 11 11 12 12 12 12 11 11 11 11 11 11 11 13 14 13 14
1 2 4 4 6 7 6 7 7 8 10 10 10 10 10 9 8 7 9 10 10 10 10 13 16 18 18 16 14 14 13 12 11 11 10 10 10 10 10 10 10 10 10 10 11 11 10 9 8 8 8 8 9 8 8 8 8 8 7 6 6 5 5 4 5 6 5 6 7 7 8 9 9 9 10 12 11 12 12 11 11 11 11 12 13 13 12 12 12 12 13 12 12 14 15 15 15
2 2 3 4 6 6 5 6 5 7 9 10 11 10 9 9 8 8 9 11 10 10 11 12 16 18 18 17 15 14 13 12 12 11 10 10 10 10 11 11 12 11 11 11 11 11 10 9 8 7 8 10 10 9 9 9 9 8 7 6 5 5 5 4 5 7 6 5 5 6 6 8 8 9 11 12 11 11 11 12 12 11 11 12 13 13 13 12 13 13 14 14 15 16 16 16 16
2 3 3 4 5 4 3 4 5 7 9 10 12 11 9 9 9 8 10 12 12 11 11 13 16 18 18 18 15 14 13 13 12 11 10 10 10 11 11 12 13 12 11 11 11 11 10 9 8 7 9 12 11 9 10 10 9 8 7 5 5 5 5 4 5 7 6 5 6 6 6 7 7 9 10 11 10 10 11 11 12 12 11 12 12 12 12 12 13 14 15 16 17 17 17 17 17
3 4 2 4 5 2 2 3 5 8 10 12 13 12 9 9 9 9 11 12 13 12 12 13 16 18 18 18 16 14 13 13 12 11 10 10 11 11 12 12 13 13 11 11 11 11 10 10 8 9 11 13 11 9 10 10 9 7 7 6 6 5 5 5 5 7 6 4 6 6 5 5 6 8 9 9 9 9 10 11 11 11 11 11 11 11 12 13 14 16 17 17 18 18 18 18 18
5 5 3 4 4 1 0 1 5 8 12 14 14 13 11 9 9 10 11 12 12 12 12 14 17 18 19 18 17 16 13 12 12 12 11 11 12 12 13 13 13 13 12 11 11 11 11 10 9 9 12 13 11 10 10 9 9 8 8 8 7 6 5 5 6 8 7 4 5 6 6 6 6 6 7 7 8 8 9 11 10 10 10 11 12 12 13 14 15 17 18 19 20 20 19 19 19
5 5 3 3 2 1 1 2 6 9 14 17 16 14 12 10 9 10 11 12 12 13 13 14 17 19 19 18 18 17 14 13 13 11 11 11 12 13 13 13 13 14 13 12 11 11 11 10 10 10 13 14 11 10 10 10 9 9 9 9 8 7 6 6 8 10 9 6 5 6 7 8 6 5 6 7 8 8 9 10 10 10 10 11 13 13 15 17 17 18 19 20 21 21 20 19 20
6 5 3 2 1 1 1 4 7 9 17 20 17 15 12 10 9 11 13 14 13 14 15 15 17 19 19 20 18 17 16 14 13 11 11 11 12 13 13 13 14 14 13 12 11 11 11 11 10 11 13 14 12 11 11 10 10 9 10 10 9 8 6 6 10 12 11 8 6 6 8 9 7 6 7 6 7 8 9 9 10 10 10 11 13 15 17 18 18 19 20 21 21 20 20 20 22
6 5 3 1 2 2 1 4 7 9 19 23 18 15 13 11 11 12 13 15 15 14 15 15 16 18 20 21 20 18 17 15 13 11 11 12 13 13 13 14 14 14 13 13 12 12 11 11 11 10 13 15 13 12 11 11 10 10 10 10 9 9 7 7 12 15 12 9 7 7 10 10 8 8 8 8 9 8 9 10 11 12 12 13 15 17 19 19 20 21 21 21 21 20 20 21 23
7 5 3 1 2 2 2 2 6 9 20 24 19 16 14 12 12 13 13 14 16 15 15 14 14 15 18 21 22 20 18 17 13 11 11 12 13 13 13 14 14 14 13 13 12 12 12 12 11 10 12 14 14 12 11 11 11 11 12 11 10 9 8 8 13 16 14 12 10 10 13 13 10 10 11 12 12 11 11 14 17 17 17 17 18 19 21 21 23 23 22 21 20 19 20 22 23
9 5 3 2 1 1 3 1 5 9 20 25 20 18 15 14 12 13 14 15 15 16 16 14 11 12 15 19 22 21 19 18 14 12 12 12 13 13 13 13 13 13 13 13 13 13 13 12 11 10 11 13 13 12 12 12 11 13 14 13 12 11 9 9 13 16 17 14 12 12 15 16 13 13 15 16 15 14 15 18 21 21 21 22 21 22 22 22 24 23 22 22 20 19 21 23 23
9 6 4 2 1 0 2 3 3 9 23 26 21 19 17 15 14 14 15 16 16 16 17 14 11 10 12 16 20 22 21 19 15 13 12 12 12 12 13 14 13 13 13 13 13 13 13 11 11 10 11 13 13 12 12 12 11 13 14 14 13 12 10 9 11 15 19 17 13 14 16 19 17 15 16 17 17 17 18 20 21 22 24 23 23 24 24 23 24 24 23 22 20 20 21 22 22
10 7 5 2 1 2 2 3 2 10 27 28 22 20 18 17 16 16 16 17 18 18 18 16 12 11 11 13 16 21 21 19 16 13 12 13 13 13 13 13 13 13 13 13 13 13 12 11 10 10 11 12 13 13 12 12 12 12 14 14 14 13 11 10 10 12 16 16 14 15 18 20 19 16 17 18 18 19 20 21 20 22 24 24 24 25 25 25 25 24 22 21 20 21 22 22 21
10 8 6 3 1 4 3 1 1 15 30 28 23 21 19 18 17 17 17 18 20 20 20 19 15 13 12 11 13 20 21 18 17 14 13 13 13 13 13 13 13 13 13 13 12 12 11 10 10 10 11 11 12 12 12 12 12 12 13 14 14 13 12 10 9 11 13 13 13 14 18 20 19 18 18 18 20 21 22 21 20 22 23 23 24 25 26 25 24 23 22 20 20 22 22 21 21
10 8 6 5 2 4 2 2 5 23 31 27 25 22 20 18 16 16 17 18 20 21 22 22 20 16 14 12 13 19 21 19 17 15 14 13 13 14 14 14 14 13 13 12 12 12 11 10 10 10 10 11 11 11 12 12 12 12 13 13 13 13 12 11 10 10 11 11 12 13 16 19 19 18 18 19 19 20 21 21 20 21 22 22 23 26 27 25 24 21 20 20 21 22 22 21 21
10 8 7 5 2 2 2 2 11 29 30 28 27 24 22 19 16 15 16 16 18 20 20 20 21 19 17 16 16 19 20 19 18 16 14 13 13 13 14 14 14 14 13 12 12 12 11 10 10 10 10 10 11 11 11 11 12 12 13 13 13 13 12 11 10 9 10 10 10 11 14 17 17 18 19 19 19 19 20 20 21 21 22 23 24 27 27 25 23 22 21 22 22 22 21 21 20
10 8 7 6 2 0 4 3 15 31 30 28 27 24 22 20 17 14 13 14 15 17 18 18 18 17 16 18 18 19 20 19 19 17 15 13 12 13 13 14 14 14 13 13 12 12 11 10 10 10 10 10 11 11 11 11 11 12 12 12 13 12 12 11 10 9 9 9 9 10 12 14 16 18 19 19 18 18 17 18 20 21 23 24 25 26 25 24 23 22 22 22 22 21 21 20 19
11 9 8 6 3 2 5 4 16 31 28 26 25 22 21 19 16 14 13 13 14 15 17 18 18 16 15 16 17 18 19 19 18 17 15 13 12 13 13 13 14 14 14 13 12 12 11 10 10 10 10 11 11 11 11 12 12 12 12 12 12 13 12 11 10 10 9 9 9 10 11 13 15 17 18 19 18 17 17 17 19 20 22 23 23 23 22 22 22 22 21 22 21 20 20 19 18
12 10 9 8 5 3 5 6 15 26 25 24 22 20 19 18 15 14 14 13 15 15 16 18 18 16 15 14 15 16 18 18 18 18 16 14 13 13 13 13 13 14 14 13 12 12 11 11 11 11 11 12 12 11 12 12 12 13 12 12 12 13 13 12 11 10 10 10 10 10 10 12 15 16 17 18 18 18 18 18 19 20 21 21 21 20 20 21 21 22 22 22 21 20 19 19 17
13 12 10 9 7 5 6 7 11 19 23 23 22 20 19 18 15 14 14 13 15 15 16 18 17 16 15 14 14 16 18 18 18 18 17 15 14 13 13 13 13 13 14 13 13 12 11 11 11 11 12 13 13 12 12 12 12 13 13 12 12 12 13 13 12 11 11 11 11 11 11 11 13 15 16 17 17 18 18 19 20 21 21 20 20 20 22 23 24 24 22 21 20 19 19 18 16
14 13 12 10 8 7 7 6 8 15 20 22 22 19 18 19 16 14 14 13 14 15 17 17 17 16 15 14 14 15 17 18 17 18 18 17 15 14 13 12 12 13 13 14 13 12 12 12 12 12 12 13 13 13 13 12 12 12 13 13 13 13 13 14 14 13 12 12 13 12 12 12 13 14 16 16 17 17 18 20 21 22 21 21 21 23 25 25 24 23 21 19 19 18 17 16 15
15 13 12 11 10 9 7 5 6 11 16 20 21 17 17 19 18 16 15 14 14 15 16 17 17 17 16 14 14 15 15 16 16 16 17 17 16 14 13 12 12 12 13 14 13 13 13 13 12 12 13 14 13 13 13 13 13 12 12 13 13 13 13 14 14 14 13 14 14 13 13 14 14 15 16 17 18 18 19 20 21 22 22 22 23 24 25 24 23 21 20 19 18 17 16 15 14
15 13 12 11 12 10 7 5 6 7 11 18 19 15 16 18 18 17 15 15 15 14 15 17 18 18 17 15 14 15 15 15 15 15 15 15 15 14 13 12 12 11 12 14 14 13 13 13 12 12 13 14 14 14 13 14 13 13 12 12 12 13 13 14 15 15 15 15 14 14 14 15 16 17 17 18 18 19 19 20 20 22 22 23 23 23 22 21 20 19 18 17 16 16 15 14 14
16 14 12 12 13 10 8 7 8 8 11 17 17 15 17 18 17 17 16 16 15 14 14 15 17 18 18 16 15 15 15 14 14 14 14 13 14 14 13 13 12 11 11 13 14 14 14 14 13 12 13 15 15 15 14 14 14 14 13 13 12 13 13 14 15 15 16 16 15 15 15 16 17 18 19 20 20 20 21 21 21 22 22 22 21 20 19 18 18 18 17 16 15 14 14 13 13
17 15 13 13 13 11 10 8 8 9 12 16 15 15 16 17 17 17 16 16 16 16 15 14 16 18 19 18 16 15 14 14 14 13 13 13 13 13 13 12 12 12 11 12 13 14 14 14 13 12 13 14 15 15 15 15 15 15 14 14 13 14 14 14 15 16 17 18 17 17 17 17 18 19 20 21 22 22 22 22 22 21 20 19 18 17 17 16 16 16 15 14 14 13 13 13 13
18 15 14 14 12 11 11 10 10 11 13 14 13 13 15 16 17 18 17 17 17 17 16 15 16 17 19 19 17 15 14 14 14 13 13 13 13 13 12 12 12 11 11 11 12 13 14 15 14 13 13 13 14 15 15 15 16 16 16 15 15 15 15 15 16 17 18 19 20 20 19 19 20 20 21 21 22 22 22 22 21 19 18 17 16 15 15 14 14 14 14 13 13 13 12 12 12
19 17 16 15 13 13 12 11 12 12 12 13 13 13 13 15 18 19 17 16 17 17 17 16 16 17 19 19 18 16 15 15 15 15 14 13 13 12 12 11 11 11 10 11 11 12 14 15 15 14 13 13 13 14 14 15 16 16 16 16 16 16 16 17 18 18 19 20 20 21 21 21 20 20 20 20 20 20 19 19 18 17 16 15 14 14 14 13 12 12 12 12 12 12 12 11 11
20 18 17 16 15 15 14 12 15 15 13 14 14 13 14 15 18 20 18 17 17 18 17 16 16 17 18 19 19 17 17 17 17 17 16 14 13 12 12 11 11 10 10 11 11 12 13 14 15 14 13 13 13 13 14 14 15 16 16 16 16 16 17 17 18 19 19 20 20 20 20 20 19 19 18 18 18 17 16 16 15 14 14 13 13 13 12 12 11 11 11 11 11 11 12 11 11
22 20 20 18 17 18 17 14 16 17 16 16 15 14 14 15 18 19 18 18 19 19 18 17 15 16 18 20 20 19 20 20 19 18 17 16 14 13 12 12 11 11 11 11 11 12 12 13 14 14 13 13 12 13 13 14 14 15 15 16 16 16 17 17 18 18 19 19 19 19 19 18 17 17 16 16 15 15 14 13 12 12 11 11 11 11 11 11 10 10 10 10 11 11 12 12 12
25 23 22 20 20 22 20 16 16 17 18 18 17 16 14 14 16 18 18 19 20 20 19 17 15 15 17 20 20 20 21 21 20 18 17 16 15 15 13 13 13 12 12 11 11 11 12 13 14 14 13 13 12 12 13 13 13 14 15 15 16 16 16 16 17 17 17 17 17 17 17 16 15 14 14 13 13 12 11 11 10 10 10 10 9 9 9 9 9 10 10 10 11 11 11 12 12
25 24 23 22 23 24 20 16 16 16 17 17 17 16 15 15 15 15 15 16 18 20 20 18 15 14 17 20 21 21 21 21 21 19 18 17 16 15 14 13 13 14 13 12 11 11 11 12 13 14 14 13 13 13 13 13 13 14 14 15 15 16 16 16 16 16 15 15 15 15 14 14 13 13 12 12 11 11 10 9 9 8 8 8 8 7 8 8 8 9 9 10 10 10 11 11 12
27 25 24 24 26 25 20 19 19 18 19 19 18 17 17 16 15 13 11 13 17 19 19 19 17 16 17 20 21 21 21 21 21 20 19 18 17 16 15 15 14 14 14 13 12 11 11 12 13 14 14 14 14 13 13 13 13 14 14 14 14 15 15 15 15 15 14 14 13 13 12 12 11 11 10 10 10 9 9 8 7 7 7 7 7 7 7 7 8 9 9 10 10 10 10 11 11
30 28 27 27 28 25 21 21 21 20 20 20 19 18 18 18 17 14 11 12 15 18 20 20 20 19 19 20 20 20 21 20 20 20 19 19 18 17 16 16 14 13 13 13 13 12 12 12 13 14 15 14 14 14 14 13 13 13 14 14 14 14 14 13 13 13 13 12 12 11 11 10 10 9 9 9 8 8 8 7 7 6 6 6 6 6 7 7 8 9 9 9 10 9 10 11 11
31 30 28 29 29 25 23 23 22 22 21 20 20 19 17 17 17 16 13 13 14 16 20 21 22 22 21 21 20 19 20 20 21 21 21 20 19 18 17 16 15 14 14 14 14 13 13 13 13 14 15 15 15 14 14 13 13 13 13 13 14 13 13 13 13 12 12 11 11 11 10 10 9 8 7 7 7 7 7 7 6 6 6 6 6 6 7 7 8 8 9 9 9 9 9 10 11
33 31 32 33 30 26 24 23 23 24 22 20 20 19 17 17 16 16 15 15 15 16 18 20 23 25 23 22 20 20 21 22 22 22 22 21 21 19 18 17 16 16 16 16 16 15 13 13 13 14 15 15 14 14 13 13 13 13 13 13 13 13 13 13 12 12 12 11 11 10 10 9 8 7 7 6 6 6 6 6 6 6 6 7 7 7 8 8 8 8 8 9 9 9 8 9 10
33 32 33 33 31 28 27 24 24 24 23 22 21 19 20 20 19 19 17 17 17 18 17 19 24 25 24 23 21 21 22 23 23 24 23 23 22 20 19 18 18 18 17 16 15 15 14 13 13 14 15 15 14 14 14 13 13 13 13 12 12 12 13 13 12 11 11 10 10 10 9 8 8 7 6 5 5 5 5 5 6 7 7 7 8 8 8 8 8 8 8 8 8 8 8 9 10
33 34 34 32 31 31 29 27 26 25 24 25 23 22 23 22 23 23 20 19 19 19 18 19 24 27 27 25 23 23 24 23 24 24 25 24 23 21 20 21 20 19 18 16 15 15 16 15 13 13 14 14 15 14 14 14 13 12 12 12 11 11 12 12 12 11 10 10 9 8 8 8 7 7 6 5 4 4 4 5 6 7 7 7 8 9 9 9 8 8 8 8 8 8 8 9 9
34 37 35 32 32 32 30 29 28 28 27 26 26 26 24 22 24 25 22 21 20 19 19 19 23 30 32 29 25 25 25 24 24 24 24 23 22 22 23 23 22 20 18 17 16 16 16 16 15 14 13 14 16 15 15 14 14 13 12 11 10 10 10 10 11 11 10 9 8 8 7 6 6 6 5 4 4 4 4 5 5 6 7 7 8 9 9 9 9 8 8 8 8 8 8 9 9
37 37 35 34 34 33 32 30 30 31 30 27 27 28 26 23 22 23 22 21 21 21 21 20 21 26 32 31 27 28 28 25 25 24 23 22 22 23 24 24 23 21 20 19 18 16 16 16 16 15 14 14 16 16 16 15 14 14 13 12 11 10 9 9 9 9 9 8 8 8 7 6 5 4 4 4 4 4 4 4 5 5 6 7 8 9 9 9 9 9 8 8 8 8 8 9 9
40 37 35 35 34 33 34 33 32 32 31 29 28 28 28 25 23 22 21 21 23 24 22 21 20 21 28 34 29 29 29 26 26 25 23 22 23 23 23 23 22 21 21 20 18 17 16 17 17 17 16 15 16 17 17 16 15 15 14 13 11 11 10 10 9 9 8 8 8 7 7 6 5 4 3 3 3 4 4 4 4 5 5 6 7 8 8 9 9 9 8 8 7 7 8 8 9
40 36 35 36 35 35 35 35 33 31 31 32 30 29 29 29 26 23 21 22 24 24 21 20 20 17 23 34 33 30 29 27 27 26 24 23 23 23 22 21 22 21 21 20 19 19 18 18 18 18 17 16 16 17 17 17 16 15 14 13 13 12 11 11 10 9 9 9 9 8 7 5 5 4 3 3 3 4 4 4 4 5 5 6 7 7 8 8 9 9 8 8 7 7 7 7 8
40 38 37 37 37 36 35 34 33 31 30 32 32 29 28 30 29 25 24 25 24 23 21 19 19 17 18 26 30 31 29 27 27 27 25 24 22 21 20 20 20 21 21 21 20 21 20 19 19 19 18 18 17 17 18 18 17 17 16 15 14 14 13 12 11 11 10 10 9 8 7 6 5 5 4 4 4 4 5 5 5 5 5 5 6 7 7 8 8 8 8 8 7 7 6 6 6
41 41 41 39 37 36 36 34 32 31 29 29 30 29 28 29 30 27 26 27 26 23 21 19 18 18 17 18 23 29 30 27 27 26 25 24 21 19 19 19 19 20 20 21 21 22 22 21 21 20 20 19 19 18 18 18 18 18 17 16 15 15 15 14 13 12 11 10 9 8 8 7 6 6 6 6 6 6 5 6 6 5 5 5 5 6 6 7 7 7 8 8 7 7 6 6 6
41 43 43 41 39 38 38 36 33 31 28 26 27 28 26 27 29 27 25 27 26 23 21 19 18 18 18 17 18 25 31 29 27 26 24 23 21 20 20 20 20 20 21 21 21 22 23 22 22 21 21 20 20 20 19 19 19 18 17 17 16 16 16 15 14 13 12 11 10 9 8 8 7 7 7 7 7 7 7 7 6 6 5 5 5 5 6 6 6 7 7 7 7 7 6 6 6
41 42 43 42 40 38 34 33 33 29 26 27 27 27 25 25 27 26 24 25 24 22 21 19 18 17 17 17 16 21 30 31 27 26 25 23 22 22 22 22 21 22 23 22 22 22 23 23 23 22 21 21 22 21 21 20 19 18 18 18 17 17 17 17 16 15 14 12 11 10 9 9 9 8 8 8 8 8 8 8 7 7 6 5 5 5 5 6 6 6 7 7 7 7 6 6 7
40 41 43 42 42 40 33 31 32 27 26 28 27 26 26 24 24 24 24 23 21 20 20 19 18 17 17 16 13 16 27 31 28 26 25 24 23 23 23 23 23 23 23 23 23 22 23 24 24 23 22 22 22 22 22 21 20 19 19 18 18 18 18 18 17 16 14 13 12 11 10 10 10 9 9 9 9 9 10 10 9 8 7 6 6 6 5 5 6 6 7 7 8 8 7 7 7
38 41 42 41 41 41 36 33 32 29 28 28 27 26 23 22 23 23 23 23 20 19 19 19 18 16 15 15 11 12 19 26 27 27 26 24 23 22 23 23 23 24 23 23 24 24 24 24 24 24 23 22 23 23 22 22 21 20 19 18 18 19 18 17 17 16 15 14 13 12 11 11 10 9 9 10 10 10 10 11 10 10 9 8 8 7 6 6 6 6 7 7 8 8 8 8 8
39 40 39 40 42 41 38 35 32 31 30 28 28 26 23 23 24 23 23 22 20 19 19 19 18 17 16 14 13 13 14 17 22 26 26 24 24 23 23 24 24 24 24 24 24 24 24 24 24 24 24 23 23 23 22 22 22 21 19 19 19 18 18 17 17 16 15 15 14 13 12 12 11 11 11 10 10 10 11 11 11 11 10 10 10 9 8 7 7 7 7 7 8 8 8 8 8
41 39 38 40 41 40 41 39 35 33 32 30 28 27 26 25 24 23 23 22 20 19 19 19 18 19 18 15 14 15 16 15 16 20 22 24 25 25 24 25 26 25 25 25 25 24 24 23 23 23 23 23 22 22 22 22 22 22 21 20 19 18 18 18 17 17 16 15 14 14 13 13 12 12 12 11 11 11 11 11 12 12 12 11 11 10 9 9 8 8 7 7 8 8 8 8 8
41 40 40 40 38 38 41 40 36 32 30 29 29 27 27 27 24 23 23 23 21 20 18 18 17 18 19 17 16 17 17 17 17 19 20 21 24 26 27 27 27 27 26 26 25 24 23 23 23 22 22 22 22 22 23 23 23 23 22 21 20 19 19 19 18 18 17 16 15 14 14 14 14 13 13 13 12 11 12 12 13 13 13 12 12 11 10 10 10 9 9 8 8 8 8 8 8
41 40 40 39 38 38 40 39 37 36 30 26 27 27 27 28 25 23 24 23 23 21 19 17 16 17 18 19 18 18 18 19 19 20 19 19 20 23 27 29 29 28 28 26 26 25 24 23 22 21 20 21 21 22 23 23 23 23 23 22 21 20 20 19 19 19 18 17 16 16 15 15 15 14 14 13 13 12 13 13 13 14 14 14 13 12 11 11 11 10 10 9 9 8 8 8 8
39 39 38 38 38 39 38 37 38 39 34 26 26 27 26 27 28 26 24 24 23 21 20 18 18 18 19 19 19 18 19 19 19 19 19 20 20 21 25 28 29 30 29 28 27 27 26 25 23 21 20 19 20 21 22 22 23 23 23 22 22 21 20 20 20 20 19 19 18 17 17 16 16 15 15 14 14 13 13 13 13 14 15 15 14 14 13 12 12 11 11 10 9 8 8 8 8
Wind_Direction
52 50 46 52 84 108 110 112 114 113 113 111 111 113 112 107 100 100 105 107 111 112 113 114 110 103 102 104 102 102 103 104 105 104 99 94 91 91 93 92 89 87 86 85 86 86 84 85 86 88 90 93 97 102 107 115 122 127 130 131 135 137 141 148 157 162 165 165 152 146 139 143 151 142 141 146 148 153 158 161 163 165 160 153 149 143 142 140 133 128 120 118 120 122 127 135 132
51 52 54 63 91 113 114 117 118 116 120 119 118 118 112 110 105 103 108 110 116 116 115 117 111 101 99 100 99 101 102 102 104 106 104 100 97 94 93 89 87 85 83 84 84 83 84 85 85 85 84 84 87 89 94 100 108 119 126 132 138 144 151 157 163 165 173 167 150 151 156 158 157 148 149 151 152 157 161 163 163 163 157 150 147 145 149 150 143 135 129 125 123 124 131 138 130
50 51 64 78 95 108 117 122 122 120 127 127 124 124 114 110 110 108 110 111 116 119 117 116 109 102 99 99 98 99 99 101 104 105 103 102 103 102 96 91 88 85 82 81 80 80 81 81 80 79 76 75 76 77 82 86 97 109 124 139 145 151 158 167 172 177 187 172 153 169 178 167 156 147 153 158 156 160 166 166 162 158 153 150 149 147 150 156 149 138 134 133 128 126 132 134 126
49 54 74 89 95 107 128 130 128 129 135 134 131 131 118 111 112 111 111 113 116 118 120 117 108 102 100 100 100 99 99 99 102 105 103 102 104 106 102 98 94 90 87 84 82 81 79 80 78 76 73 71 72 74 77 82 87 95 109 120 129 141 156 175 184 189 192 172 168 189 190 170 153 146 157 168 161 164 172 172 164 155 155 156 154 148 149 159 151 138 135 136 132 128 131 130 124
48 62 86 93 90 100 140 147 142 140 143 139 138 138 124 111 112 116 114 114 119 121 122 119 110 103 99 99 99 97 97 97 97 100 103 103 103 103 102 100 98 95 93 90 88 87 87 87 84 79 76 73 74 76 77 76 71 72 77 83 95 119 147 176 189 189 183 177 191 200 196 178 162 155 167 177 169 169 173 176 174 157 158 165 159 149 149 156 145 137 135 136 133 130 132 128 122
56 80 101 94 90 89 128 154 154 148 149 145 143 143 132 117 113 121 122 116 122 129 126 122 113 106 101 97 96 95 94 94 94 95 100 103 102 99 96 95 94 94 93 93 93 94 96 94 88 82 77 76 77 79 78 73 69 73 79 86 96 112 137 166 184 182 177 185 200 202 199 193 179 168 175 184 176 174 177 180 178 162 164 169 159 151 153 155 141 135 136 134 134 132 131 126 121
79 113 114 93 93 89 107 145 156 154 153 154 153 149 141 129 120 126 131 124 125 134 131 125 117 109 105 100 96 94 93 92 93 94 98 101 101 97 93 90 89 91 94 95 97 98 99 95 89 84 80 79 79 82 83 82 81 82 87 95 102 110 123 145 159 160 171 186 199 199 199 205 192 175 180 189 183 181 181 180 177 169 172 170 159 157 157 153 141 136 137 136 136 132 130 128 124
97 130 122 91 90 91 100 129 153 161 160 161 162 158 147 136 128 131 135 128 128 134 135 130 121 114 108 104 100 97 95 94 95 97 99 101 101 98 94 91 89 91 96 98 100 99 98 93 89 87 85 83 83 86 91 94 92 92 96 103 111 116 123 136 138 134 154 178 193 196 197 209 197 181 188 192 189 188 183 177 177 177 174 171 166 162 156 149 140 137 137 138 136 130 131 132 126
122 135 111 86 81 81 101 126 152 172 172 168 167 163 149 140 137 136 136 130 131 135 137 135 126 118 112 108 105 103 101 99 99 100 102 103 101 99 96 94 93 93 96 98 98 98 96 92 89 89 90 89 89 94 102 100 96 100 108 115 123 126 131 139 131 122 137 160 171 184 194 207 200 191 194 193 192 193 190 180 178 178 172 173 171 161 154 149 140 137 138 138 136 132 132 131 123
138 138 103 83 75 69 96 125 157 180 183 174 168 166 154 145 142 142 143 135 136 138 137 139 130 121 116 112 109 106 105 103 102 102 104 104 102 98 97 97 98 97 98 98 98 98 97 96 97 101 98 93 95 104 106 102 100 107 116 124 128 132 138 144 134 122 131 150 154 164 179 191 190 188 189 190 189 188 189 181 175 174 171 173 170 159 153 149 141 138 138 138 136 134 132 127 120
148 150 115 77 67 65 88 129 165 181 186 177 169 168 163 153 147 148 151 144 142 141 140 143 134 125 121 116 113 108 105 105 104 104 107 107 105 101 100 101 102 102 103 103 104 104 104 105 108 110 100 96 103 110 105 105 108 111 118 122 125 130 137 143 130 118 125 139 143 147 150 157 166 176 178 180 182 181 177 171 170 169 171 172 166 159 151 147 144 139 137 137 134 132 131 127 122
164 162 138 77 51 38 334 190 177 181 183 178 171 170 168 160 151 152 155 150 147 144 144 146 137 129 125 121 117 112 108 106 104 105 109 110 108 105 105 105 105 106 107 109 111 110 109 110 110 105 98 101 110 111 105 106 108 110 111 111 117 122 127 131 112 106 114 118 125 130 132 138 152 171 168 166 171 167 161 161 163 163 165 165 159 156 148 144 144 138 136 136 134 132 130 126 123
177 167 141 81 26 334 306 200 177 179 180 179 175 172 169 161 152 151 154 151 150 146 146 149 141 134 130 126 120 115 112 109 106 107 110 110 107 107 108 108 108 108 109 112 113 111 109 109 106 102 99 104 111 110 107 104 103 105 103 103 109 114 118 114 99 94 97 98 107 117 123 125 136 162 155 156 157 149 149 153 154 154 157 153 149 152 147 143 141 136 135 135 133 132 128 124 124
184 171 144 101 318 292 327 176 175 183 182 180 177 172 163 158 155 153 153 149 150 149 148 152 146 139 136 130 125 121 119 113 109 111 111 108 107 109 111 110 109 109 110 110 108 106 105 102 98 98 102 108 112 111 110 108 107 105 99 102 106 107 104 98 92 90 93 100 108 109 108 109 114 132 136 135 134 132 136 140 143 146 150 147 145 151 147 140 137 135 134 133 131 128 125 125 127
188 178 153 140 244 249 10 165 181 193 185 178 175 168 158 157 156 154 153 148 148 150 149 154 153 147 143 137 131 129 124 118 115 115 113 109 108 109 111 111 110 109 109 107 103 101 98 97 94 93 99 105 110 110 111 111 112 108 101 102 104 102 95 87 87 90 97 104 106 102 98 100 105 115 120 114 110 121 128 127 132 137 139 142 144 145 141 134 132 134 133 131 128 126 125 128 128
189 182 160 147 240 223 22 141 182 198 186 175 170 164 156 157 153 152 153 150 149 151 151 156 161 155 149 141 134 133 127 121 120 118 115 112 110 110 110 110 110 109 107 105 101 97 94 93 94 93 93 99 105 108 110 109 109 109 105 103 104 102 96 86 86 91 96 95 92 90 93 99 103 103 102 100 101 112 119 117 119 125 129 133 137 136 133 131 131 133 132 129 127 127 128 130 129
192 187 163 138 252 204 28 95 176 198 184 171 166 162 156 155 150 150 152 152 155 155 152 155 165 164 157 147 137 135 128 123 123 121 117 114 112 111 109 109 108 107 105 102 97 94 92 92 94 94 92 95 102 106 105 104 106 107 106 107 107 105 99 91 88 92 95 94 92 90 94 100 100 95 95 96 99 106 112 111 112 118 122 125 128 128 129 130 131 133 131 127 127 128 130 130 128
194 194 178 124 26 169 41 121 155 193 179 166 165 163 158 157 152 152 154 156 159 158 155 155 165 172 168 156 141 134 127 125 125 123 120 116 114 111 109 108 108 107 103 99 96 93 91 91 93 91 90 95 102 105 102 99 100 102 107 111 110 107 102 95 91 93 95 96 98 97 97 98 95 92 95 97 96 101 108 109 109 114 119 122 125 127 129 131 132 131 129 127 127 130 131 129 126
195 200 196 161 38 348 23 126 133 185 172 163 165 163 160 163 158 158 160 161 161 161 159 157 164 171 174 166 146 133 126 125 125 124 123 119 117 113 110 109 107 106 103 99 97 95 92 90 90 89 89 95 102 107 106 101 100 101 107 112 111 108 103 97 92 90 94 97 99 101 100 97 96 96 98 98 94 96 104 106 107 111 116 120 124 126 128 130 130 128 126 125 127 130 130 128 125
197 203 204 211 281 340 358 59 141 173 167 162 165 164 165 168 164 161 163 166 164 163 162 157 161 169 172 172 154 133 126 126 127 129 127 124 122 117 113 110 108 106 103 100 98 96 94 92 91 89 89 95 103 107 106 103 104 106 108 109 109 107 103 100 96 91 93 97 99 99 99 97 97 97 97 97 94 96 102 104 105 109 115 119 122 124 124 126 125 123 123 125 127 130 130 128 123
197 203 207 217 270 352 10 15 151 166 166 164 165 168 170 169 168 165 162 168 168 167 166 159 159 166 167 169 163 139 130 131 132 135 132 128 126 121 117 113 110 107 103 101 99 98 95 95 95 92 91 97 103 105 104 102 104 106 107 108 108 106 103 100 97 94 93 95 98 98 96 95 96 95 93 93 94 97 104 108 109 113 118 121 121 121 122 123 121 121 123 125 129 130 129 126 120
195 201 205 204 248 2 56 35 161 168 168 166 168 171 171 170 171 167 161 167 171 170 169 163 159 162 165 167 167 148 137 138 138 138 134 131 129 124 121 117 113 110 107 104 101 99 97 97 97 97 98 102 106 107 106 103 103 106 107 107 108 106 104 101 98 97 95 93 96 97 96 97 100 99 95 92 92 95 102 109 113 116 120 120 119 120 121 122 120 121 123 125 129 129 127 122 118
193 199 201 188 220 359 62 38 169 170 169 168 171 172 170 170 169 161 158 162 168 173 170 166 159 160 168 170 169 156 144 143 139 138 136 135 134 129 125 121 118 115 112 109 105 102 100 100 100 102 105 108 110 113 113 109 107 108 108 108 108 106 103 103 104 104 103 100 100 102 102 103 105 105 103 100 98 99 102 106 108 111 114 115 115 118 120 119 117 118 121 125 128 127 123 119 116
192 194 195 178 190 144 79 68 166 169 171 172 173 174 170 167 161 153 155 157 162 173 172 167 160 163 174 175 173 160 147 143 138 138 140 140 138 133 129 125 123 120 116 114 110 106 105 105 105 106 110 113 114 117 119 118 115 113 111 111 108 107 105 105 108 110 112 112 110 108 109 110 110 111 113 113 113 113 110 107 106 106 108 109 110 113 114 114 115 119 124 129 129 125 120 116 114
195 194 190 177 175 147 106 113 157 169 178 181 176 174 170 162 155 153 154 155 158 168 172 168 164 169 177 179 177 163 150 146 143 143 145 145 143 138 134 131 128 124 121 117 113 110 110 110 109 109 111 114 117 119 123 123 121 118 115 112 109 107 107 107 109 112 115 116 114 113 114 117 117 116 116 118 119 119 117 114 111 109 108 109 110 114 116 119 123 127 129 130 128 123 118 115 114
196 195 191 181 173 151 134 141 163 178 189 192 182 172 169 163 158 158 156 156 158 164 169 168 168 171 177 181 182 170 157 153 152 150 148 148 148 144 140 137 133 129 126 122 117 115 115 115 113 112 111 113 117 120 122 122 120 119 116 114 111 109 109 110 111 113 117 116 113 114 117 119 119 117 115 115 116 117 117 116 114 113 113 116 120 123 125 127 129 129 129 128 124 119 116 115 116
196 196 194 186 176 162 155 164 188 192 194 197 186 172 169 167 164 163 160 160 162 165 167 167 169 171 175 182 185 179 167 161 159 155 153 153 152 149 145 141 138 135 131 126 123 119 119 119 117 116 113 113 116 120 121 119 118 117 117 116 113 112 111 112 112 114 116 116 116 118 120 120 119 116 114 114 114 114 115 115 116 117 120 123 126 127 126 127 127 127 126 123 117 114 114 115 116
198 198 196 191 183 176 168 179 203 196 195 194 187 181 178 172 168 167 168 166 165 167 167 166 169 171 173 181 188 186 179 170 164 160 158 157 155 152 148 145 143 142 137 132 128 125 123 122 121 119 115 115 115 118 119 118 118 117 116 115 114 113 113 112 112 114 116 115 116 119 121 121 119 118 117 117 116 116 116 118 119 121 124 125 125 125 125 125 125 123 121 118 115 114 114 115 116
201 199 198 196 191 185 175 189 197 189 196 190 187 193 187 178 173 171 173 172 168 168 170 169 170 173 173 180 189 191 188 176 168 166 163 161 157 154 152 149 148 148 144 138 133 130 128 125 124 122 118 117 117 117 119 120 120 118 115 114 114 113 112 112 112 114 116 115 116 119 122 124 124 124 123 123 121 120 120 120 121 122 123 123 124 124 124 123 121 120 118 115 114 114 114 115 116
204 200 200 200 197 190 178 187 186 185 200 194 196 202 188 182 182 177 177 177 172 169 173 175 174 175 173 177 189 195 192 180 173 173 169 167 163 160 157 152 151 153 150 142 138 134 133 129 127 126 121 119 119 120 120 122 122 120 118 115 114 113 111 112 113 115 115 116 118 121 125 128 128 129 128 126 124 122 121 120 120 121 121 120 121 121 120 119 118 117 116 113 111 110 112 114 115
207 204 204 206 201 192 185 188 181 188 204 202 208 207 186 184 186 184 183 182 179 173 174 179 178 179 176 176 187 196 195 183 179 179 175 173 171 168 163 156 153 156 154 147 143 140 137 134 130 128 125 121 121 122 122 124 125 124 122 118 115 113 112 112 112 114 115 116 119 121 124 125 126 126 126 124 123 121 121 120 121 119 119 118 118 117 118 119 118 117 114 112 110 109 110 113 117
210 207 207 210 205 197 196 192 176 186 207 206 207 200 185 188 191 190 189 186 186 180 176 179 182 184 179 176 183 192 196 190 184 184 183 181 178 174 169 162 158 158 156 152 148 146 142 137 134 130 128 126 124 124 125 126 128 127 125 122 120 118 116 115 114 114 115 116 118 119 120 120 120 121 120 120 120 120 121 120 120 118 117 117 117 118 119 121 120 118 114 112 111 111 112 116 121
211 209 210 212 206 200 202 193 176 183 202 201 197 191 186 194 196 194 193 190 191 188 182 180 181 186 183 178 179 187 195 195 190 188 189 186 181 178 174 169 164 161 158 154 152 150 146 141 138 136 134 132 129 128 127 129 130 130 129 127 125 124 122 120 119 117 117 117 118 118 119 119 119 119 119 119 119 120 120 119 118 117 117 118 120 121 122 123 121 117 115 114 114 114 116 121 127
214 212 213 215 207 204 204 193 182 187 197 197 193 190 188 192 195 196 197 195 194 193 190 185 181 186 187 179 175 184 194 197 196 192 191 189 183 180 179 175 170 168 162 158 158 155 152 146 141 141 139 136 133 131 129 130 132 132 133 132 130 129 128 126 125 124 122 121 121 120 120 121 121 121 120 120 120 119 118 117 115 115 116 117 120 123 125 125 123 120 119 120 122 123 125 129 132
216 215 216 216 213 213 212 202 194 194 199 201 199 195 191 190 192 197 200 199 198 197 196 192 184 183 188 182 175 183 194 198 200 197 193 189 184 182 181 178 176 175 171 166 164 161 158 152 145 143 143 141 137 134 132 131 134 136 136 136 136 135 133 132 131 129 128 127 126 126 125 124 124 124 123 122 121 119 117 115 113 112 112 113 117 123 128 130 130 129 130 131 132 133 134 136 135
217 215 214 213 214 216 213 207 205 203 205 207 205 202 200 195 193 197 202 203 200 199 200 200 192 184 187 186 179 184 194 199 201 201 197 192 187 185 183 182 181 180 178 175 170 167 164 156 148 144 145 145 142 138 137 135 135 138 140 141 141 140 139 138 137 135 134 134 132 132 131 130 130 128 127 125 122 120 118 117 115 113 112 112 116 124 131 134 137 139 140 139 139 139 139 139 139
221 220 217 216 217 218 214 211 211 210 214 216 212 212 213 208 199 196 205 210 203 199 201 204 200 189 188 192 187 184 192 198 200 202 201 196 192 188 184 185 186 184 183 181 175 172 170 161 152 148 148 150 149 147 143 141 141 141 143 146 146 146 146 145 144 143 141 140 139 138 138 137 136 135 133 131 129 127 126 124 121 118 116 116 118 124 132 138 144 147 147 145 142 142 142 141 141
224 223 221 220 221 219 213 214 215 210 215 219 217 220 222 219 213 205 207 214 208 204 204 203 204 197 192 197 194 186 188 195 199 201 202 200 196 193 189 190 191 189 187 185 180 176 173 168 159 153 154 156 157 155 152 149 148 147 147 149 150 150 150 150 150 149 148 147 147 146 146 145 143 142 141 140 138 137 134 131 129 127 124 125 126 129 136 145 151 152 150 147 144 144 145 144 144
223 223 224 225 227 223 214 212 215 213 217 222 220 220 226 227 227 218 208 210 212 211 208 206 207 203 198 201 200 191 186 191 198 199 201 202 198 196 195 194 192 191 191 190 187 181 175 174 168 161 159 161 163 162 160 157 154 152 151 151 152 153 154 154 154 154 154 153 154 153 153 153 151 151 150 149 148 145 144 142 141 141 137 137 137 138 143 150 154 155 153 149 145 147 148 146 146
224 223 224 227 227 222 217 214 215 216 219 225 225 223 226 230 231 225 215 216 223 220 213 212 213 207 202 204 203 194 184 186 194 197 199 201 199 198 199 197 192 192 194 193 193 188 179 178 176 169 165 166 168 168 165 162 159 157 156 155 155 156 157 158 158 158 158 158 158 159 159 158 158 158 159 159 157 154 152 152 152 152 154 152 148 147 151 156 156 155 155 150 144 144 149 150 150
223 222 223 226 224 219 218 214 213 216 219 224 228 228 226 224 227 228 222 223 230 229 223 223 223 215 206 206 203 195 187 185 190 194 197 199 199 197 199 199 195 194 196 195 194 192 186 181 181 177 172 170 170 169 167 165 164 163 162 161 160 160 161 162 163 163 163 163 164 165 165 165 166 167 168 167 165 164 162 162 161 164 167 163 156 154 158 160 157 156 154 148 140 142 150 155 155
221 222 224 228 228 226 222 216 214 218 222 223 222 224 226 224 225 230 229 228 231 233 232 231 230 224 215 210 204 195 192 189 188 191 194 198 197 194 197 202 200 197 196 196 194 193 192 188 186 184 179 174 172 169 168 168 170 171 170 169 168 167 166 167 169 169 169 169 169 172 172 172 173 174 175 174 174 177 176 172 170 171 172 166 158 157 159 161 158 157 155 147 142 143 150 156 160
219 221 223 224 227 229 226 222 221 222 224 225 220 220 227 231 231 233 233 231 231 232 234 232 230 227 221 213 204 198 197 193 190 192 194 197 196 192 195 202 203 198 193 194 195 195 196 194 191 191 185 177 173 173 174 172 173 175 175 177 177 175 175 175 176 176 177 178 178 181 183 181 181 181 179 177 176 179 179 176 174 173 170 163 159 158 160 162 159 156 155 149 146 147 151 159 165
217 219 219 220 222 224 225 224 223 222 223 225 224 222 225 230 231 232 230 229 232 233 235 233 231 230 223 213 203 199 199 195 191 194 196 197 196 193 195 200 202 198 192 191 195 197 199 198 196 194 190 183 176 177 181 179 174 175 178 181 182 183 184 186 186 184 185 187 188 193 197 197 193 187 181 175 168 168 170 173 175 172 167 163 161 160 160 161 158 156 157 155 153 154 156 161 169
216 216 216 220 221 222 222 221 221 222 222 224 226 224 223 225 228 227 226 227 231 233 235 234 237 237 224 211 203 200 200 196 192 195 196 195 196 196 195 198 200 198 193 191 194 198 201 202 201 197 194 189 181 180 185 186 180 178 180 183 185 188 191 194 195 195 196 196 199 202 205 210 209 197 187 176 164 162 165 170 173 171 167 165 163 163 163 161 159 159 161 162 160 161 164 166 173
215 213 214 219 221 222 222 220 220 222 222 222 225 224 221 224 228 228 225 227 231 232 235 236 242 245 222 207 204 201 200 197 193 196 196 193 196 198 196 196 198 198 196 193 192 197 202 205 205 201 197 194 189 185 186 190 188 184 184 186 187 191 196 199 199 200 203 206 210 213 213 217 221 216 206 189 171 166 170 173 174 172 170 171 170 168 168 166 165 165 166 169 168 167 170 173 178
211 209 214 218 220 222 222 222 223 222 223 223 223 222 221 223 228 229 226 229 232 232 237 240 245 250 221 207 205 203 200 198 196 197 197 196 197 198 197 196 197 198 198 195 193 195 200 206 209 205 200 198 196 193 190 191 193 191 190 191 192 194 197 201 201 200 204 209 213 217 220 225 232 237 235 217 196 182 180 181 177 176 178 179 179 177 175 174 174 172 171 174 176 174 174 177 182
207 206 213 216 218 221 223 224 224 223 225 225 222 221 221 221 226 228 228 231 233 233 239 245 246 245 227 215 213 208 203 200 199 199 200 200 199 197 197 197 197 198 199 198 197 197 199 204 209 207 204 202 200 199 197 194 193 194 195 196 197 198 199 201 203 203 205 209 212 215 220 226 233 238 240 232 218 203 194 193 191 187 187 188 189 188 185 184 183 181 180 179 180 180 179 180 186
206 206 211 213 215 219 221 223 224 224 224 223 221 221 220 220 223 226 229 232 234 235 241 247 246 240 236 232 224 215 210 204 201 201 203 203 199 195 196 197 197 197 199 201 200 199 200 203 207 208 206 205 204 203 203 200 197 196 197 200 201 201 202 202 203 206 208 209 210 214 219 226 232 235 236 234 227 219 210 206 206 201 195 194 196 198 199 199 195 193 192 190 189 188 187 188 192
208 208 210 211 213 216 219 221 222 222 222 220 220 221 221 220 221 224 229 233 233 237 242 245 245 242 239 240 235 222 214 207 201 200 204 204 200 196 195 195 197 197 198 202 204 202 201 203 207 209 207 206 206 207 207 206 204 201 199 201 202 202 203 203 203 206 209 210 211 216 223 228 234 237 238 236 233 229 224 221 218 213 207 205 205 207 212 213 211 209 207 205 204 201 199 198 199
210 210 211 211 212 214 218 222 221 221 224 222 221 222 221 218 218 221 227 233 232 234 240 243 243 243 239 240 247 234 217 209 202 199 200 203 202 199 195 194 198 199 198 201 204 205 204 204 207 210 209 207 208 209 210 210 209 206 203 204 205 204 203 203 204 205 207 209 211 216 223 228 231 234 236 235 233 231 229 227 225 221 218 217 216 219 222 223 224 223 222 221 219 216 212 210 209
211 212 212 212 212 212 213 219 220 220 225 224 220 222 221 216 215 216 223 230 230 231 237 241 242 242 240 237 243 234 218 210 204 199 199 201 203 202 200 198 200 202 201 200 202 206 206 205 207 210 211 210 210 210 212 213 213 211 208 207 208 208 206 205 205 204 206 208 209 212 219 227 231 233 236 237 234 231 230 228 226 224 224 224 225 227 229 230 231 232 231 230 230 228 225 223 219
213 213 213 213 214 213 214 219 220 219 225 226 222 221 218 214 215 216 219 225 226 228 234 239 240 237 234 228 217 210 214 213 210 204 201 201 204 206 206 204 204 205 204 202 204 207 209 208 207 209 211 212 213 212 212 214 216 215 212 211 212 213 211 209 207 206 206 208 209 212 216 222 229 233 235 237 236 234 232 230 227 226 225 227 229 232 233 233 233 234 234 233 235 235 234 232 230
213 213 214 215 215 216 216 217 220 220 223 227 225 221 215 213 215 215 217 220 222 226 230 234 235 227 220 216 207 199 204 214 217 214 210 208 207 208 210 211 209 207 206 205 206 209 211 213 212 211 212 214 215 215 214 215 217 218 216 214 215 217 217 214 211 209 209 208 210 213 215 219 224 229 233 235 236 236 235 232 229 228 227 227 229 231 233 233 232 233 233 233 236 238 238 238 238
213 212 214 216 216 219 220 218 219 219 221 225 225 220 215 214 213 211 212 216 220 225 228 228 227 224 218 207 202 204 205 210 218 221 222 220 215 210 210 214 215 212 209 208 209 211 214 216 216 216 216 217 218 218 217 217 218 219 219 217 216 218 220 220 217 215 213 212 213 215 216 218 220 225 231 234 234 237 238 235 230 229 228 229 230 230 230 232 232 230 229 229 232 237 240 241 242
214 213 214 215 215 220 224 222 220 220 221 225 225 222 218 215 212 209 208 212 218 222 224 222 220 223 221 210 202 204 208 211 216 222 226 231 230 224 216 214 216 217 215 211 210 212 215 218 218 219 220 221 221 220 219 218 219 220 221 220 218 218 219 221 221 221 219 217 217 218 218 220 221 223 228 232 233 237 241 239 234 230 228 228 229 227 226 228 229 229 228 227 228 232 237 241 244
215 216 216 216 214 218 223 222 221 220 221 225 224 222 223 217 210 209 208 210 216 219 218 215 212 214 218 217 213 210 211 213 217 222 226 234 241 238 229 219 214 216 218 216 213 213 214 216 218 219 222 224 225 224 224 223 221 222 224 223 222 221 221 223 224 225 223 221 221 221 221 222 223 224 226 229 231 235 240 240 238 234 230 228 228 225 223 224 225 226 227 226 226 227 231 238 244
214 216 219 219 218 219 221 222 221 219 219 224 220 218 223 215 206 209 210 209 213 217 217 214 210 212 216 220 220 218 219 219 220 224 228 234 240 244 240 228 217 216 218 217 215 214 214 215 215 215 217 221 225 226 227 227 225 225 227 228 228 226 225 226 228 229 227 226 224 223 223 224 225 226 227 227 228 231 236 238 239 238 234 230 228 226 224 223 222 222 223 224 225 225 228 235 242